| time (UTC) | temp F | wind direction | speed MPH | gust MPH | rain 1hr in | rain 24hr in | rain mn in | humidity % | barometer mb |
| 20260902034224 | 69 | 269 | 8.0 | 10.0 | 0.00 | 0.00 | 0.00 | 42 | 1011.5 |
| 20260902033723 | 69 | 122 | 2.0 | 2.0 | 0.00 | 0.00 | 0.00 | 43 | 1011.1 |
| 20260902033218 | 70 | 122 | 0.0 | 1.0 | 0.00 | 0.00 | 0.00 | 41 | 1010.9 |
| 20260902032716 | 71 | 127 | 3.0 | 3.0 | 0.00 | 0.00 | 0.00 | 39 | 1010.6 |
| 20260902032211 | 71 | 148 | 2.0 | 2.0 | 0.00 | 0.00 | 0.00 | 39 | 1010.6 |
| 20260902031706 | 67 | 107 | 6.0 | 7.0 | 0.00 | 0.00 | 0.00 | 44 | 1010.7 |
| 20260902031201 | 70 | 228 | 3.0 | 3.0 | 0.00 | 0.00 | 0.00 | 40 | 1010.2 |
| 20260902030657 | 69 | 234 | 3.0 | 3.0 | 0.00 | 0.00 | 0.00 | 43 | 1010.3 |
| 20260902030156 | 70 | 177 | 3.0 | 3.0 | 0.00 | 0.00 | 0.00 | 40 | 1010.5 |
| 20260902025650 | 71 | 133 | 3.0 | 3.0 | 0.00 | 0.00 | 0.00 | 39 | 1010.2 |
| 20260902025145 | 71 | 124 | 3.0 | 3.0 | 0.00 | 0.00 | 0.00 | 40 | 1010.3 |
| 20260902024641 | 71 | 117 | 4.0 | 5.0 | 0.00 | 0.00 | 0.00 | 39 | 1010.2 |
| 20260902024136 | 71 | 119 | 3.0 | 3.0 | 0.00 | 0.00 | 0.00 | 39 | 1010.0 |
| 20260902023631 | 72 | 112 | 3.0 | 3.0 | 0.00 | 0.00 | 0.00 | 37 | 1009.9 |
| 20260902023126 | 72 | 120 | 3.0 | 3.0 | 0.00 | 0.00 | 0.00 | 37 | 1010.1 |
| 20260902022625 | 72 | 117 | 4.0 | 5.0 | 0.00 | 0.00 | 0.00 | 38 | 1010.1 |
| 20260902022122 | 72 | 119 | 2.0 | 2.0 | 0.00 | 0.00 | 0.00 | 37 | 1010.1 |
| 20260902021617 | 73 | 107 | 3.0 | 5.0 | 0.00 | 0.00 | 0.00 | 37 | 1010.1 |
| 20260902021112 | 73 | 115 | 5.0 | 6.0 | 0.00 | 0.00 | 0.00 | 36 | 1009.9 |
| 20260902020608 | 74 | 143 | 3.0 | 5.0 | 0.00 | 0.00 | 0.00 | 35 | 1010.0 |
| 20260902020103 | 74 | 180 | 4.0 | 5.0 | 0.00 | 0.00 | 0.00 | 34 | 1010.0 |
| 20260902015559 | 75 | 195 | 4.0 | 5.0 | 0.00 | 0.00 | 0.00 | 34 | 1009.9 |
| 20260902015054 | 75 | 157 | 5.0 | 7.0 | 0.00 | 0.00 | 0.00 | 33 | 1009.9 |
| 20260902014550 | 75 | 146 | 5.0 | 7.0 | 0.00 | 0.00 | 0.00 | 34 | 1010.1 |
| 20260902014045 | 75 | 137 | 4.0 | 5.0 | 0.00 | 0.00 | 0.00 | 37 | 1009.7 |
| 20260902013545 | 76 | 125 | 5.0 | 6.0 | 0.00 | 0.00 | 0.00 | 37 | 1009.7 |
| 20260902013041 | 76 | 134 | 6.0 | 7.0 | 0.00 | 0.00 | 0.00 | 36 | 1009.8 |
| 20260902012536 | 77 | 117 | 5.0 | 6.0 | 0.00 | 0.00 | 0.00 | 34 | 1009.4 |
| 20260902012031 | 77 | 107 | 5.0 | 6.0 | 0.00 | 0.00 | 0.00 | 34 | 1009.6 |
| 20260902011527 | 77 | 110 | 6.0 | 7.0 | 0.00 | 0.00 | 0.00 | 35 | 1009.7 |
| 20260902011026 | 77 | 109 | 5.0 | 6.0 | 0.00 | 0.00 | 0.00 | 35 | 1009.6 |
| 20260902010526 | 77 | 102 | 3.0 | 3.0 | 0.00 | 0.00 | 0.00 | 36 | 1009.9 |
| 20260902010022 | 78 | 81 | 2.0 | 2.0 | 0.00 | 0.00 | 0.00 | 36 | 1009.9 |
| 20260902005519 | 79 | 87 | 2.0 | 2.0 | 0.00 | 0.00 | 0.00 | 35 | 1010.1 |
| 20260902005016 | 79 | 81 | 0.0 | 0.0 | 0.00 | 0.00 | 0.00 | 34 | 1010.1 |
| 20260902004515 | 79 | 82 | 0.0 | 0.0 | 0.00 | 0.00 | 0.00 | 35 | 1010.0 |
| 20260902004011 | 79 | 84 | 0.0 | 0.0 | 0.00 | 0.00 | 0.00 | 34 | 1010.1 |
| 20260902003506 | 80 | 212 | 0.0 | 0.0 | 0.00 | 0.00 | 0.00 | 33 | 1010.1 |
| 20260902003001 | 80 | 212 | 0.0 | 0.0 | 0.00 | 0.00 | 0.00 | 33 | 1010.2 |
| 20260902002456 | 81 | 228 | 3.0 | 3.0 | 0.00 | 0.00 | 0.00 | 32 | 1010.0 |
| 20260902001956 | 81 | 193 | 2.0 | 3.0 | 0.00 | 0.00 | 0.00 | 31 | 1010.1 |
| 20260902001451 | 81 | 204 | 5.0 | 6.0 | 0.00 | 0.00 | 0.00 | 31 | 1009.8 |
| 20260902000946 | 81 | 129 | 5.0 | 6.0 | 0.00 | 0.00 | 0.00 | 30 | 1009.9 |
| 20260902000444 | 80 | 162 | 4.0 | 6.0 | 0.00 | 0.00 | 0.00 | 31 | 1010.0 |
| 20260901235936 | 80 | 115 | 9.0 | 11.0 | 0.00 | 0.00 | 0.00 | 31 | 1010.1 |
| 20260901235431 | 79 | 120 | 9.0 | 9.0 | 0.00 | 0.00 | 0.00 | 32 | 1010.0 |
| 20260901234926 | 80 | 113 | 7.0 | 8.0 | 0.00 | 0.00 | 0.00 | 31 | 1010.0 |
| 20260901234420 | 80 | 109 | 10.0 | 11.0 | 0.00 | 0.00 | 0.00 | 31 | 1010.1 |
| 20260901233915 | 80 | 92 | 9.0 | 9.0 | 0.00 | 0.00 | 0.00 | 31 | 1009.9 |
| 20260901233410 | 80 | 108 | 11.0 | 13.0 | 0.00 | 0.00 | 0.00 | 31 | 1010.1 |
| 20260901232907 | 80 | 113 | 8.0 | 9.0 | 0.00 | 0.00 | 0.00 | 31 | 1010.0 |
| 20260901232401 | 80 | 126 | 12.0 | 14.0 | 0.00 | 0.00 | 0.00 | 31 | 1010.0 |
| 20260901231856 | 81 | 127 | 14.0 | 15.0 | 0.00 | 0.00 | 0.00 | 30 | 1010.0 |
| 20260901231353 | 81 | 113 | 11.0 | 13.0 | 0.00 | 0.00 | 0.00 | 29 | 1009.9 |
| 20260901230849 | 82 | 104 | 9.0 | 10.0 | 0.00 | 0.00 | 0.00 | 30 | 1010.1 |
| 20260901230348 | 83 | 99 | 14.0 | 16.0 | 0.00 | 0.00 | 0.00 | 29 | 1009.8 |
| 20260901225844 | 84 | 109 | 13.0 | 16.0 | 0.00 | 0.00 | 0.00 | 28 | 1009.8 |
| 20260901225343 | 84 | 117 | 10.0 | 11.0 | 0.00 | 0.00 | 0.00 | 28 | 1010.1 |
| 20260901224838 | 84 | 107 | 9.0 | 11.0 | 0.00 | 0.00 | 0.00 | 29 | 1009.9 |
| 20260901224334 | 84 | 114 | 10.0 | 13.0 | 0.00 | 0.00 | 0.00 | 28 | 1009.8 |
| 20260901223831 | 84 | 111 | 11.0 | 14.0 | 0.00 | 0.00 | 0.00 | 29 | 1009.9 |
| 20260901223326 | 84 | 108 | 10.0 | 13.0 | 0.00 | 0.00 | 0.00 | 29 | 1009.9 |
| 20260901222821 | 85 | 114 | 11.0 | 14.0 | 0.00 | 0.00 | 0.00 | 29 | 1010.0 |
| 20260901222318 | 85 | 120 | 11.0 | 13.0 | 0.00 | 0.00 | 0.00 | 28 | 1010.0 |
| 20260901221814 | 85 | 109 | 14.0 | 15.0 | 0.00 | 0.00 | 0.00 | 28 | 1010.0 |
| 20260901221309 | 85 | 113 | 9.0 | 13.0 | 0.00 | 0.00 | 0.00 | 28 | 1010.1 |
| 20260901220808 | 85 | 100 | 11.0 | 13.0 | 0.00 | 0.00 | 0.00 | 28 | 1010.3 |
| 20260901220308 | 86 | 91 | 4.0 | 5.0 | 0.00 | 0.00 | 0.00 | 27 | 1010.3 |
| 20260901215806 | 86 | 86 | 6.0 | 8.0 | 0.00 | 0.00 | 0.00 | 25 | 1010.5 |
| 20260901215306 | 86 | 39 | 2.0 | 2.0 | 0.00 | 0.00 | 0.00 | 28 | 1010.5 |
| 20260901214804 | 86 | 354 | 2.0 | 2.0 | 0.00 | 0.00 | 0.00 | 29 | 1010.7 |
| 20260901214303 | 86 | 61 | 1.0 | 2.0 | 0.00 | 0.00 | 0.00 | 28 | 1010.7 |
| 20260901213758 | 86 | 59 | 2.0 | 3.0 | 0.00 | 0.00 | 0.00 | 28 | 1010.7 |
| 20260901213258 | 87 | 78 | 3.0 | 3.0 | 0.00 | 0.00 | 0.00 | 29 | 1010.8 |
| 20260901212753 | 87 | 62 | 0.0 | 0.0 | 0.00 | 0.00 | 0.00 | 26 | 1011.0 |
| 20260901212248 | 86 | 60 | 1.0 | 1.0 | 0.00 | 0.00 | 0.00 | 24 | 1010.9 |
| 20260901211743 | 85 | 45 | 3.0 | 3.0 | 0.00 | 0.00 | 0.00 | 25 | 1011.2 |
| 20260901211240 | 85 | 94 | 7.0 | 8.0 | 0.00 | 0.00 | 0.00 | 30 | 1011.1 |
| 20260901210736 | 85 | 86 | 3.0 | 3.0 | 0.00 | 0.00 | 0.00 | 34 | 1011.1 |
| 20260901210231 | 85 | 92 | 2.0 | 5.0 | 0.00 | 0.00 | 0.00 | 34 | 1011.3 |
| 20260901205727 | 85 | 45 | 4.0 | 5.0 | 0.00 | 0.00 | 0.00 | 31 | 1011.6 |
| 20260901205226 | 84 | 56 | 0.0 | 0.0 | 0.00 | 0.00 | 0.00 | 31 | 1011.5 |
| 20260901204722 | 84 | 102 | 2.0 | 6.0 | 0.00 | 0.00 | 0.00 | 32 | 1011.8 |
| 20260901204218 | 83 | 93 | 1.0 | 1.0 | 0.00 | 0.00 | 0.00 | 31 | 1011.6 |
| 20260901203712 | 83 | 109 | 4.0 | 5.0 | 0.00 | 0.00 | 0.00 | 31 | 1011.8 |
| 20260901203207 | 83 | 65 | 5.0 | 6.0 | 0.00 | 0.00 | 0.00 | 33 | 1012.0 |
| 20260901202707 | 83 | 93 | 7.0 | 9.0 | 0.00 | 0.00 | 0.00 | 32 | 1012.1 |
| 20260901202202 | 82 | 80 | 4.0 | 5.0 | 0.00 | 0.00 | 0.00 | 35 | 1012.0 |
| 20260901201658 | 82 | 110 | 11.0 | 13.0 | 0.00 | 0.00 | 0.00 | 33 | 1012.2 |
| 20260901201152 | 82 | 79 | 5.0 | 6.0 | 0.00 | 0.00 | 0.00 | 35 | 1012.1 |
| 20260901200651 | 81 | 106 | 9.0 | 10.0 | 0.00 | 0.00 | 0.00 | 35 | 1012.4 |
| 20260901200147 | 81 | 75 | 7.0 | 9.0 | 0.00 | 0.00 | 0.00 | 38 | 1012.5 |
| 20260901195643 | 81 | 105 | 2.0 | 3.0 | 0.00 | 0.00 | 0.00 | 39 | 1012.4 |
| 20260901195138 | 81 | 81 | 3.0 | 6.0 | 0.00 | 0.00 | 0.00 | 38 | 1012.6 |
| 20260901194634 | 80 | 78 | 2.0 | 3.0 | 0.00 | 0.00 | 0.00 | 37 | 1012.6 |
| 20260901194129 | 80 | 66 | 6.0 | 6.0 | 0.00 | 0.00 | 0.00 | 38 | 1012.9 |
| 20260901193624 | 80 | 104 | 7.0 | 8.0 | 0.00 | 0.00 | 0.00 | 35 | 1012.8 |
| 20260901193119 | 79 | 59 | 3.0 | 5.0 | 0.00 | 0.00 | 0.00 | 38 | 1012.9 |
| 20260901192614 | 79 | 89 | 8.0 | 10.0 | 0.00 | 0.00 | 0.00 | 39 | 1012.9 |
| 20260901192109 | 79 | 83 | 4.0 | 6.0 | 0.00 | 0.00 | 0.00 | 39 | 1013.2 |
| 20260901191605 | 78 | 125 | 3.0 | 5.0 | 0.00 | 0.00 | 0.00 | 36 | 1013.1 |
| 20260901191101 | 77 | 90 | 4.0 | 5.0 | 0.00 | 0.00 | 0.00 | 40 | 1013.4 |
| 20260901190556 | 76 | 68 | 7.0 | 9.0 | 0.00 | 0.00 | 0.00 | 40 | 1013.5 |
| 20260901190055 | 76 | 89 | 7.0 | 7.0 | 0.00 | 0.00 | 0.00 | 39 | 1013.7 |
| 20260901185554 | 76 | 70 | 3.0 | 3.0 | 0.00 | 0.00 | 0.00 | 40 | 1013.9 |
| 20260901185053 | 75 | 82 | 7.0 | 8.0 | 0.00 | 0.00 | 0.00 | 40 | 1013.9 |
| 20260901184548 | 75 | 55 | 1.0 | 2.0 | 0.00 | 0.00 | 0.00 | 43 | 1014.0 |
| 20260901184043 | 73 | 47 | 3.0 | 3.0 | 0.00 | 0.00 | 0.00 | 47 | 1014.1 |
| 20260901183538 | 73 | 60 | 1.0 | 1.0 | 0.00 | 0.00 | 0.00 | 49 | 1014.2 |
| 20260901183033 | 72 | 31 | 2.0 | 2.0 | 0.00 | 0.00 | 0.00 | 49 | 1014.4 |
| 20260901182530 | 71 | 342 | 3.0 | 3.0 | 0.00 | 0.00 | 0.00 | 51 | 1014.2 |
| 20260901182024 | 71 | 41 | 2.0 | 2.0 | 0.00 | 0.00 | 0.00 | 49 | 1014.5 |
| 20260901181523 | 71 | 72 | 1.0 | 1.0 | 0.00 | 0.00 | 0.00 | 47 | 1014.5 |
| 20260901181023 | 69 | 58 | 0.0 | 0.0 | 0.00 | 0.00 | 0.00 | 48 | 1014.8 |
| 20260901180521 | 69 | 337 | 4.0 | 5.0 | 0.00 | 0.00 | 0.00 | 50 | 1014.7 |
| 20260901180017 | 67 | 49 | 0.0 | 0.0 | 0.00 | 0.00 | 0.00 | 51 | 1014.8 |
| 20260901175510 | 67 | 31 | 1.0 | 2.0 | 0.00 | 0.00 | 0.00 | 51 | 1014.8 |
| 20260901175005 | 67 | 24 | 1.0 | 2.0 | 0.00 | 0.00 | 0.00 | 50 | 1014.9 |
| 20260901174501 | 66 | 27 | 2.0 | 2.0 | 0.00 | 0.00 | 0.00 | 52 | 1014.9 |
| 20260901173956 | 65 | 348 | 2.0 | 2.0 | 0.00 | 0.00 | 0.00 | 52 | 1015.1 |
| 20260901173451 | 66 | 247 | 0.0 | 0.0 | 0.00 | 0.00 | 0.00 | 49 | 1015.3 |
| 20260901172948 | 65 | 30 | 1.0 | 1.0 | 0.00 | 0.00 | 0.00 | 52 | 1015.1 |
| 20260901172443 | 65 | 47 | 0.0 | 1.0 | 0.00 | 0.00 | 0.00 | 52 | 1015.4 |
| 20260901171941 | 66 | 49 | 1.0 | 1.0 | 0.00 | 0.00 | 0.00 | 53 | 1015.1 |
| 20260901171439 | 67 | 39 | 0.0 | 0.0 | 0.00 | 0.00 | 0.00 | 49 | 1015.6 |
| 20260901170938 | 65 | 56 | 0.0 | 1.0 | 0.00 | 0.00 | 0.00 | 55 | 1015.4 |
| 20260901170428 | 65 | 72 | 3.0 | 3.0 | 0.00 | 0.00 | 0.00 | 51 | 1015.5 |
| 20260901165927 | 65 | 41 | 0.0 | 0.0 | 0.00 | 0.00 | 0.00 | 52 | 1015.4 |
| 20260901165422 | 67 | 62 | 0.0 | 0.0 | 0.00 | 0.00 | 0.00 | 50 | 1015.6 |
| 20260901164918 | 64 | 122 | 1.0 | 2.0 | 0.00 | 0.00 | 0.00 | 50 | 1015.7 |
| 20260901164418 | 63 | 30 | 1.0 | 2.0 | 0.00 | 0.00 | 0.00 | 51 | 1015.7 |
| 20260901163919 | 62 | 24 | 1.0 | 2.0 | 0.00 | 0.00 | 0.00 | 53 | 1015.7 |
| 20260901163414 | 62 | 58 | 0.0 | 0.0 | 0.00 | 0.00 | 0.00 | 56 | 1015.7 |
| 20260901162909 | 60 | 44 | 0.0 | 0.0 | 0.00 | 0.00 | 0.00 | 59 | 1015.9 |
| 20260901162408 | 59 | 34 | 1.0 | 2.0 | 0.00 | 0.00 | 0.00 | 63 | 1015.7 |
| 20260901161902 | 58 | 23 | 2.0 | 2.0 | 0.00 | 0.00 | 0.00 | 63 | 1015.9 |
| 20260901161401 | 58 | 29 | 0.0 | 0.0 | 0.00 | 0.00 | 0.00 | 65 | 1015.8 |
| 20260901160856 | 57 | 17 | 2.0 | 2.0 | 0.00 | 0.00 | 0.00 | 67 | 1015.8 |
| 20260901160353 | 58 | 359 | 2.0 | 2.0 | 0.00 | 0.00 | 0.00 | 66 | 1015.8 |
| 20260901155852 | 57 | 30 | 1.0 | 1.0 | 0.00 | 0.00 | 0.00 | 64 | 1015.9 |
| 20260901155347 | 58 | 24 | 2.0 | 2.0 | 0.00 | 0.00 | 0.00 | 64 | 1016.0 |
| 20260901154844 | 57 | 10 | 3.0 | 3.0 | 0.00 | 0.00 | 0.00 | 66 | 1015.7 |
| 20260901154342 | 57 | 7 | 3.0 | 3.0 | 0.00 | 0.00 | 0.00 | 65 | 1016.1 |
| 20260901153837 | 57 | 13 | 2.0 | 2.0 | 0.00 | 0.00 | 0.00 | 62 | 1015.9 |
| 20260901153332 | 57 | 324 | 3.0 | 3.0 | 0.00 | 0.00 | 0.00 | 63 | 1016.0 |
| 20260901152831 | 57 | 343 | 3.0 | 3.0 | 0.00 | 0.00 | 0.00 | 61 | 1016.0 |
| 20260901152330 | 57 | 5 | 2.0 | 2.0 | 0.00 | 0.00 | 0.00 | 61 | 1016.0 |
| 20260901151826 | 58 | 13 | 1.0 | 2.0 | 0.00 | 0.00 | 0.00 | 61 | 1016.0 |
| 20260901151326 | 58 | 36 | 0.0 | 0.0 | 0.00 | 0.00 | 0.00 | 62 | 1016.0 |
| 20260901150820 | 58 | 36 | 1.0 | 1.0 | 0.00 | 0.00 | 0.00 | 61 | 1015.8 |
| 20260901150318 | 57 | 36 | 0.0 | 0.0 | 0.00 | 0.00 | 0.00 | 63 | 1016.1 |
| 20260901145815 | 57 | 44 | 0.0 | 0.0 | 0.00 | 0.00 | 0.00 | 64 | 1016.1 |
| 20260901145310 | 56 | 49 | 0.0 | 0.0 | 0.00 | 0.00 | 0.00 | 66 | 1016.0 |
| 20260901144805 | 55 | 31 | 0.0 | 1.0 | 0.00 | 0.00 | 0.00 | 66 | 1016.0 |
| 20260901144301 | 55 | 47 | 2.0 | 2.0 | 0.00 | 0.00 | 0.00 | 66 | 1016.0 |
| 20260901143756 | 55 | 57 | 0.0 | 0.0 | 0.00 | 0.00 | 0.00 | 67 | 1015.9 |
| 20260901143252 | 55 | 64 | 0.0 | 0.0 | 0.00 | 0.00 | 0.00 | 67 | 1016.0 |
| 20260901142749 | 55 | 64 | 0.0 | 0.0 | 0.00 | 0.00 | 0.00 | 66 | 1015.8 |
| 20260901142247 | 55 | 73 | 0.0 | 0.0 | 0.00 | 0.00 | 0.00 | 67 | 1015.9 |
| 20260901141743 | 53 | 82 | 0.0 | 0.0 | 0.00 | 0.00 | 0.00 | 68 | 1016.0 |
| 20260901141242 | 52 | 81 | 2.0 | 2.0 | 0.00 | 0.00 | 0.00 | 70 | 1015.9 |
| 20260901140742 | 51 | 72 | 1.0 | 1.0 | 0.00 | 0.00 | 0.00 | 72 | 1015.9 |
| 20260901140240 | 50 | 67 | 0.0 | 0.0 | 0.00 | 0.00 | 0.00 | 76 | 1015.8 |
| 20260901135735 | 49 | 67 | 0.0 | 0.0 | 0.00 | 0.00 | 0.00 | 78 | 1015.9 |
| 20260901135230 | 49 | 58 | 1.0 | 2.0 | 0.00 | 0.00 | 0.00 | 80 | 1015.7 |
| 20260901134726 | 48 | 49 | 0.0 | 0.0 | 0.00 | 0.00 | 0.00 | 82 | 1015.7 |
| 20260901134226 | 48 | 49 | 0.0 | 0.0 | 0.00 | 0.00 | 0.00 | 82 | 1015.7 |
| 20260901133725 | 47 | 49 | 0.0 | 0.0 | 0.00 | 0.00 | 0.00 | 83 | 1015.7 |
| 20260901133224 | 46 | 49 | 0.0 | 0.0 | 0.00 | 0.00 | 0.00 | 85 | 1015.8 |
| 20260901132723 | 46 | 49 | 0.0 | 0.0 | 0.00 | 0.00 | 0.00 | 86 | 1015.6 |
| 20260901132218 | 45 | 49 | 0.0 | 0.0 | 0.00 | 0.00 | 0.00 | 87 | 1015.6 |
| 20260901131713 | 45 | 49 | 0.0 | 0.0 | 0.00 | 0.00 | 0.00 | 88 | 1015.6 |
| 20260901131212 | 45 | 49 | 0.0 | 0.0 | 0.00 | 0.00 | 0.00 | 89 | 1015.7 |
| 20260901130708 | 44 | 49 | 0.0 | 0.0 | 0.00 | 0.00 | 0.00 | 89 | 1015.7 |
| 20260901130207 | 44 | 49 | 0.0 | 0.0 | 0.00 | 0.00 | 0.00 | 89 | 1015.4 |
| 20260901125705 | 43 | 49 | 0.0 | 0.0 | 0.00 | 0.00 | 0.00 | 88 | 1015.4 |
| 20260901125200 | 44 | 48 | 0.0 | 1.0 | 0.00 | 0.00 | 0.00 | 87 | 1015.4 |
| 20260901124655 | 44 | 45 | 2.0 | 2.0 | 0.00 | 0.00 | 0.00 | 86 | 1015.5 |
| 20260901124155 | 45 | 34 | 0.0 | 1.0 | 0.00 | 0.00 | 0.00 | 82 | 1015.7 |
| 20260901123650 | 46 | 35 | 0.0 | 0.0 | 0.00 | 0.00 | 0.00 | 78 | 1015.5 |
| 20260901123149 | 46 | 114 | 0.0 | 0.0 | 0.00 | 0.00 | 0.00 | 77 | 1015.8 |
| 20260901122648 | 46 | 114 | 0.0 | 0.0 | 0.00 | 0.00 | 0.00 | 78 | 1015.5 |
| 20260901122143 | 46 | 114 | 1.0 | 1.0 | 0.00 | 0.00 | 0.00 | 79 | 1015.4 |
| 20260901121637 | 46 | 114 | 0.0 | 0.0 | 0.00 | 0.00 | 0.00 | 79 | 1015.4 |
| 20260901121132 | 47 | 101 | 0.0 | 0.0 | 0.00 | 0.00 | 0.00 | 79 | 1015.6 |
| 20260901120627 | 47 | 101 | 0.0 | 0.0 | 0.00 | 0.00 | 0.00 | 78 | 1015.3 |
| 20260901120122 | 47 | 102 | 2.0 | 2.0 | 0.00 | 0.00 | 0.00 | 78 | 1015.5 |
| 20260901115617 | 47 | 83 | 1.0 | 1.0 | 0.00 | 0.00 | 0.00 | 80 | 1015.3 |
| 20260901115114 | 47 | 76 | 1.0 | 2.0 | 0.00 | 0.00 | 0.00 | 78 | 1015.4 |
| 20260901114610 | 46 | 74 | 0.0 | 0.0 | 0.00 | 0.00 | 0.00 | 81 | 1015.3 |
| 20260901114109 | 47 | 88 | 0.0 | 0.0 | 0.00 | 0.00 | 0.00 | 80 | 1015.5 |
| 20260901113608 | 47 | 88 | 1.0 | 1.0 | 0.00 | 0.00 | 0.00 | 80 | 1015.4 |
| 20260901113103 | 47 | 88 | 1.0 | 2.0 | 0.00 | 0.00 | 0.00 | 80 | 1015.7 |
| 20260901112603 | 47 | 88 | 1.0 | 1.0 | 0.00 | 0.00 | 0.00 | 78 | 1015.5 |
| 20260901112058 | 47 | 101 | 1.0 | 2.0 | 0.00 | 0.00 | 0.00 | 79 | 1015.7 |
| 20260901111556 | 47 | 101 | 1.0 | 1.0 | 0.00 | 0.00 | 0.00 | 81 | 1015.6 |
| 20260901111055 | 47 | 101 | 1.0 | 1.0 | 0.00 | 0.00 | 0.00 | 82 | 1015.5 |
| 20260901110551 | 46 | 101 | 2.0 | 2.0 | 0.00 | 0.00 | 0.00 | 83 | 1015.6 |
| 20260901110046 | 46 | 71 | 0.0 | 1.0 | 0.00 | 0.00 | 0.00 | 84 | 1015.3 |
| 20260901105543 | 46 | 67 | 1.0 | 1.0 | 0.00 | 0.00 | 0.00 | 84 | 1015.4 |
| 20260901105042 | 46 | 75 | 2.0 | 2.0 | 0.00 | 0.00 | 0.00 | 84 | 1015.5 |
| 20260901104539 | 47 | 68 | 2.0 | 2.0 | 0.00 | 0.00 | 0.00 | 81 | 1015.5 |
| 20260901104034 | 47 | 77 | 1.0 | 1.0 | 0.00 | 0.00 | 0.00 | 80 | 1015.5 |
| 20260901103528 | 47 | 77 | 2.0 | 2.0 | 0.00 | 0.00 | 0.00 | 80 | 1015.6 |
| 20260901103024 | 48 | 48 | 0.0 | 0.0 | 0.00 | 0.00 | 0.00 | 78 | 1015.4 |
| 20260901102524 | 48 | 48 | 0.0 | 0.0 | 0.00 | 0.00 | 0.00 | 77 | 1015.4 |
| 20260901102018 | 48 | 48 | 0.0 | 0.0 | 0.00 | 0.00 | 0.00 | 79 | 1015.4 |
| 20260901101514 | 48 | 33 | 0.0 | 1.0 | 0.00 | 0.00 | 0.00 | 79 | 1015.3 |
| 20260901101008 | 48 | 33 | 0.0 | 0.0 | 0.00 | 0.00 | 0.00 | 78 | 1015.4 |
| 20260901100503 | 48 | 22 | 1.0 | 1.0 | 0.00 | 0.00 | 0.00 | 77 | 1015.5 |
| 20260901100001 | 48 | 25 | 2.0 | 2.0 | 0.00 | 0.00 | 0.00 | 80 | 1015.4 |
| 20260901095500 | 48 | 25 | 0.0 | 0.0 | 0.00 | 0.00 | 0.00 | 82 | 1015.3 |
| 20260901094958 | 48 | 24 | 0.0 | 0.0 | 0.00 | 0.00 | 0.00 | 81 | 1015.4 |
| 20260901094453 | 48 | 48 | 0.0 | 0.0 | 0.00 | 0.00 | 0.00 | 80 | 1015.5 |
| 20260901093952 | 48 | 93 | 0.0 | 0.0 | 0.00 | 0.00 | 0.00 | 79 | 1015.3 |
| 20260901093447 | 48 | 93 | 0.0 | 0.0 | 0.00 | 0.00 | 0.00 | 78 | 1015.4 |
| 20260901092947 | 48 | 93 | 1.0 | 1.0 | 0.00 | 0.00 | 0.00 | 80 | 1015.3 |
| 20260901092443 | 47 | 93 | 2.0 | 2.0 | 0.00 | 0.00 | 0.00 | 80 | 1015.1 |
| 20260901091939 | 48 | 93 | 1.0 | 1.0 | 0.00 | 0.00 | 0.00 | 78 | 1015.3 |
| 20260901091434 | 49 | 114 | 0.0 | 0.0 | 0.00 | 0.00 | 0.00 | 75 | 1015.5 |
| 20260901090929 | 49 | 114 | 0.0 | 0.0 | 0.00 | 0.00 | 0.00 | 76 | 1015.4 |
| 20260901090429 | 48 | 114 | 0.0 | 0.0 | 0.00 | 0.00 | 0.00 | 77 | 1015.5 |
| 20260901085924 | 48 | 114 | 0.0 | 0.0 | 0.00 | 0.00 | 0.00 | 75 | 1015.4 |
| 20260901085420 | 49 | 114 | 0.0 | 0.0 | 0.00 | 0.00 | 0.00 | 75 | 1015.3 |
| 20260901084916 | 50 | 114 | 1.0 | 1.0 | 0.00 | 0.00 | 0.00 | 74 | 1015.3 |
| 20260901084412 | 49 | 115 | 2.0 | 2.0 | 0.00 | 0.00 | 0.00 | 76 | 1015.6 |
| 20260901083908 | 49 | 114 | 1.0 | 1.0 | 0.00 | 0.00 | 0.00 | 77 | 1015.5 |
| 20260901083402 | 49 | 114 | 0.0 | 0.0 | 0.00 | 0.00 | 0.00 | 76 | 1015.6 |
| 20260901082900 | 48 | 114 | 0.0 | 0.0 | 0.00 | 0.00 | 0.00 | 78 | 1015.7 |
| 20260901082355 | 50 | 114 | 2.0 | 2.0 | 0.00 | 0.00 | 0.00 | 75 | 1015.5 |
| 20260901081850 | 50 | 114 | 0.0 | 0.0 | 0.00 | 0.00 | 0.00 | 72 | 1015.6 |
| 20260901081346 | 51 | 114 | 0.0 | 0.0 | 0.00 | 0.00 | 0.00 | 72 | 1015.7 |
| 20260901080845 | 51 | 114 | 0.0 | 0.0 | 0.00 | 0.00 | 0.00 | 67 | 1015.8 |
| 20260901080340 | 51 | 114 | 0.0 | 0.0 | 0.00 | 0.00 | 0.00 | 69 | 1015.8 |
| 20260901075834 | 51 | 114 | 0.0 | 0.0 | 0.00 | 0.00 | 0.00 | 69 | 1015.8 |
| 20260901075330 | 51 | 115 | 0.0 | 0.0 | 0.00 | 0.00 | 0.00 | 66 | 1016.0 |
| 20260901074824 | 51 | 114 | 0.0 | 0.0 | 0.00 | 0.00 | 0.00 | 70 | 1015.8 |
| 20260901074319 | 52 | 114 | 0.0 | 0.0 | 0.00 | 0.00 | 0.00 | 68 | 1015.7 |
| 20260901073815 | 52 | 114 | 0.0 | 0.0 | 0.00 | 0.00 | 0.00 | 64 | 1015.6 |
| 20260901073309 | 52 | 114 | 0.0 | 0.0 | 0.00 | 0.00 | 0.00 | 65 | 1015.8 |
| 20260901072800 | 53 | 114 | 0.0 | 0.0 | 0.00 | 0.00 | 0.00 | 65 | 1015.9 |
| 20260901072300 | 53 | 114 | 0.0 | 0.0 | 0.00 | 0.00 | 0.00 | 64 | 1015.7 |
| 20260901071755 | 53 | 114 | 0.0 | 0.0 | 0.00 | 0.00 | 0.00 | 66 | 1015.7 |
| 20260901071253 | 54 | 114 | 0.0 | 0.0 | 0.00 | 0.00 | 0.00 | 63 | 1015.6 |
| 20260901070752 | 53 | 114 | 0.0 | 0.0 | 0.00 | 0.00 | 0.00 | 63 | 1015.7 |
| 20260901070248 | 53 | 114 | 0.0 | 0.0 | 0.00 | 0.00 | 0.00 | 63 | 1015.7 |
| 20260901065748 | 53 | 117 | 1.0 | 1.0 | 0.00 | 0.00 | 0.00 | 64 | 1015.5 |
| 20260901065243 | 52 | 121 | 2.0 | 2.0 | 0.00 | 0.00 | 0.00 | 68 | 1015.6 |
| 20260901064739 | 51 | 95 | 2.0 | 2.0 | 0.00 | 0.00 | 0.00 | 72 | 1015.5 |
| 20260901064235 | 51 | 94 | 3.0 | 3.0 | 0.00 | 0.00 | 0.00 | 74 | 1015.7 |
| 20260901063732 | 51 | 93 | 0.0 | 0.0 | 0.00 | 0.00 | 0.00 | 73 | 1015.5 |
| 20260901063227 | 52 | 93 | 0.0 | 0.0 | 0.00 | 0.00 | 0.00 | 69 | 1015.4 |
| 20260901062724 | 53 | 105 | 0.0 | 0.0 | 0.00 | 0.00 | 0.00 | 67 | 1015.4 |
| 20260901062219 | 54 | 166 | 0.0 | 0.0 | 0.00 | 0.00 | 0.00 | 66 | 1015.3 |
| 20260901061715 | 54 | 166 | 1.0 | 1.0 | 0.00 | 0.00 | 0.00 | 64 | 1015.5 |
| 20260901061214 | 55 | 166 | 2.0 | 2.0 | 0.00 | 0.00 | 0.00 | 62 | 1015.4 |
| 20260901060710 | 55 | 166 | 3.0 | 3.0 | 0.00 | 0.00 | 0.00 | 62 | 1015.6 |
| 20260901060205 | 54 | 126 | 2.0 | 2.0 | 0.00 | 0.00 | 0.00 | 63 | 1015.6 |
| 20260901055700 | 54 | 114 | 2.0 | 2.0 | 0.00 | 0.00 | 0.00 | 65 | 1015.5 |
| 20260901055157 | 55 | 114 | 0.0 | 0.0 | 0.00 | 0.00 | 0.00 | 68 | 1015.6 |
| 20260901054654 | 55 | 114 | 1.0 | 1.0 | 0.00 | 0.00 | 0.00 | 65 | 1015.5 |
| 20260901054150 | 56 | 94 | 2.0 | 2.0 | 0.00 | 0.00 | 0.00 | 59 | 1015.6 |
| 20260901053645 | 55 | 92 | 0.0 | 0.0 | 0.00 | 0.00 | 0.00 | 64 | 1015.5 |
| 20260901053141 | 55 | 92 | 0.0 | 0.0 | 0.00 | 0.00 | 0.00 | 62 | 1015.6 |
| 20260901052636 | 55 | 92 | 0.0 | 0.0 | 0.00 | 0.00 | 0.00 | 62 | 1015.6 |
| 20260901052132 | 54 | 96 | 0.0 | 0.0 | 0.00 | 0.00 | 0.00 | 64 | 1015.7 |
| 20260901051631 | 54 | 96 | 0.0 | 0.0 | 0.00 | 0.00 | 0.00 | 65 | 1015.6 |
| 20260901051130 | 55 | 96 | 0.0 | 0.0 | 0.00 | 0.00 | 0.00 | 65 | 1015.8 |
| 20260901050626 | 55 | 96 | 1.0 | 1.0 | 0.00 | 0.00 | 0.00 | 64 | 1015.7 |
| 20260901050121 | 55 | 96 | 0.0 | 0.0 | 0.00 | 0.00 | 0.00 | 67 | 1015.5 |
| 20260901045615 | 56 | 96 | 0.0 | 0.0 | 0.00 | 0.00 | 0.00 | 66 | 1015.6 |
| 20260901045110 | 56 | 96 | 0.0 | 0.0 | 0.00 | 0.00 | 0.00 | 62 | 1015.7 |
| 20260901044606 | 58 | 96 | 0.0 | 0.0 | 0.00 | 0.00 | 0.00 | 59 | 1015.7 |
| 20260901044102 | 57 | 96 | 0.0 | 0.0 | 0.00 | 0.00 | 0.00 | 59 | 1015.7 |
| 20260901043557 | 57 | 96 | 0.0 | 0.0 | 0.00 | 0.00 | 0.00 | 62 | 1015.8 |
| 20260901043052 | 58 | 96 | 0.0 | 0.0 | 0.00 | 0.00 | 0.00 | 61 | 1015.6 |
| 20260901042552 | 58 | 111 | 0.0 | 0.0 | 0.00 | 0.00 | 0.00 | 57 | 1015.8 |
| 20260901042047 | 58 | 111 | 0.0 | 0.0 | 0.00 | 0.00 | 0.00 | 60 | 1015.9 |
| 20260901041542 | 58 | 100 | 2.0 | 2.0 | 0.00 | 0.00 | 0.00 | 58 | 1015.9 |
| 20260901041037 | 58 | 99 | 0.0 | 0.0 | 0.00 | 0.00 | 0.00 | 59 | 1015.9 |
| 20260901040536 | 58 | 99 | 0.0 | 0.0 | 0.00 | 0.00 | 0.00 | 61 | 1015.7 |
| 20260901040031 | 59 | 99 | 0.0 | 0.0 | 0.00 | 0.00 | 0.00 | 59 | 1015.9 |
| 20260901035529 | 59 | 98 | 0.0 | 0.0 | 0.00 | 0.00 | 0.00 | 61 | 1015.8 |
| 20260901035027 | 60 | 98 | 0.0 | 0.0 | 0.00 | 0.00 | 0.00 | 55 | 1015.7 |
| 20260901034522 | 59 | 123 | 1.0 | 1.0 | 0.00 | 0.00 | 0.00 | 55 | 1015.8 |